DateTimeUTC,F1_A11,F1_S11,BsB_S11,BsG_S11,BsR_S11,BbsB_S11,BbsG_S11,BbsR_S11,BaB_A11,BaG_A11,BaR_A11,Tu_S11,T_S11,Uu_S11,U_S11,P_S11,T1_A11
2021-08-27T04:00:00Z,00000200,21000000,,,,,,,-000.70,-000.10,-000.26,18.0,25.0,01.2,00.8,0672.1,30.8
2021-08-27T04:01:00Z,00000200,21000000,,,,,,,0000.10,-000.10,0000.17,18.0,25.1,01.2,00.8,0672.1,30.8
2021-08-27T04:02:00Z,00000200,21000000,,,,,,,-000.14,0000.07,-000.06,18.0,25.1,01.2,00.8,0672.1,30.8
2021-08-27T04:03:00Z,00000200,61000000,,,,,,,0000.27,0000.11,0000.06,18.0,25.2,01.2,00.8,0672.1,30.9
2021-08-27T04:04:00Z,00000200,41000000,0000.77,-000.06,-000.14,0000.03,0000.42,-000.35,-000.13,-000.06,0000.02,18.4,25.1,01.2,00.8,0673.0,30.9
2021-08-27T04:05:00Z,00000200,01000000,0000.64,0000.25,0000.40,-000.22,-000.03,0000.03,0000.31,0000.18,-000.02,18.5,25.1,01.3,00.8,0673.1,30.9
2021-08-27T04:06:00Z,00000200,01000000,0000.13,0000.26,-000.18,0000.19,0000.22,-000.11,-000.16,0000.12,0000.43,18.5,25.0,01.3,00.9,0673.1,30.9
2021-08-27T04:07:00Z,00000200,01000000,0000.66,0000.41,0000.08,0000.26,-000.02,-000.10,0000.49,0000.29,-000.39,18.5,25.0,01.3,00.9,0673.1,30.8
2021-08-27T04:08:00Z,00000200,01000000,0000.40,0000.24,-000.16,0000.66,-000.00,-000.03,-000.00,-000.28,0000.35,18.4,25.0,01.2,00.8,0673.1,30.8
2021-08-27T04:09:00Z,00000200,01000000,-000.12,0000.10,0000.31,-000.33,-000.15,-000.08,-000.09,0000.43,0000.01,18.4,25.0,01.3,00.8,0673.2,30.8
2021-08-27T04:10:00Z,00000200,01000000,-000.10,0000.35,-000.36,0000.01,0000.21,-000.03,0000.02,-000.06,-000.17,18.4,25.0,01.3,00.9,0673.2,30.8
2021-08-27T04:11:00Z,00000200,01000000,0000.72,0000.47,0000.07,0000.16,0000.10,-000.08,0000.35,0000.07,0000.26,18.3,24.9,01.3,00.9,0673.2,30.8
2021-08-27T04:12:00Z,00000200,01000000,0000.32,0000.58,-000.10,-000.04,-000.07,-000.37,-000.01,0000.20,0000.20,18.3,24.9,01.3,00.9,0673.1,30.8
2021-08-27T04:13:00Z,00000200,01000000,-000.01,-000.03,0000.20,0000.03,0000.30,0000.03,-000.06,-000.12,-000.19,18.3,24.9,01.4,00.9,0673.1,30.8
2021-08-27T04:14:00Z,00000200,01000000,0000.07,0000.62,0000.34,0000.17,0000.18,-000.27,0000.28,-000.05,0000.18,18.3,24.9,01.3,00.9,0673.1,30.8
2021-08-27T04:15:00Z,00000200,01000000,0000.32,0000.15,0000.18,0000.64,0000.30,0000.25,-000.35,-000.05,0000.04,18.3,24.9,01.3,00.9,0673.0,30.8
2021-08-27T04:16:00Z,00000200,01000000,0000.24,0000.31,-000.10,0000.30,0000.16,-000.19,0000.40,0000.22,-000.16,18.3,24.8,01.4,00.9,0673.0,30.8
2021-08-27T04:17:00Z,00000200,01000000,0000.08,0000.52,0000.18,0000.17,0000.23,-000.06,0000.25,-000.03,0000.17,18.4,24.9,01.4,00.9,0673.0,30.8
2021-08-27T04:18:00Z,00000200,01000000,-000.24,0000.14,-000.20,-000.05,0000.12,-000.27,0000.17,0000.71,0000.51,18.5,24.9,01.5,01.0,0673.0,30.9
2021-08-27T04:19:00Z,00000200,01000000,0000.43,0000.30,0000.44,0000.15,0000.19,0000.09,0000.32,0000.04,0000.15,18.6,25.0,01.5,01.0,0673.0,30.9
2021-08-27T04:20:00Z,00000200,01000000,-000.02,0000.45,0000.20,0000.41,0000.14,0000.21,-000.08,0000.42,0000.13,18.6,25.0,01.4,01.0,0673.0,30.9
2021-08-27T04:21:00Z,00000200,01000000,0000.56,0000.62,0000.32,0000.64,0000.31,-000.45,0000.69,0000.26,0000.12,18.6,25.0,01.7,01.1,0673.0,30.8
2021-08-27T04:22:00Z,00000200,01000000,0000.57,0000.28,0000.22,0000.61,0000.08,-000.05,-000.05,-000.25,0000.05,18.6,25.0,01.7,01.1,0672.9,30.8
2021-08-27T04:23:00Z,00000200,01000000,0000.88,0000.45,0000.49,-000.05,0000.00,0000.18,0000.27,0000.58,0000.30,18.5,25.0,01.7,01.1,0672.9,30.8
2021-08-27T04:24:00Z,00000200,01000000,0000.10,0000.54,0000.26,0000.26,0000.11,0000.13,0000.12,0000.10,0000.11,18.5,24.9,01.7,01.1,0672.8,30.8
2021-08-27T04:25:00Z,00000200,01000000,0000.63,0000.38,-000.04,-000.19,0000.18,-000.08,0000.14,-000.09,-000.00,18.4,24.9,01.7,01.1,0672.8,30.8
2021-08-27T04:26:00Z,00000200,01000000,0000.49,0000.46,0000.23,0000.35,0000.12,-000.20,0000.41,0000.24,0000.25,18.4,24.9,01.6,01.1,0672.8,30.8
2021-08-27T04:27:00Z,00000200,01000000,0000.60,0000.26,0000.47,0000.16,0000.24,0000.09,0000.06,0000.04,0000.05,18.4,24.9,01.8,01.2,0672.8,30.8
2021-08-27T04:28:00Z,00000200,01000000,-000.11,0000.61,0000.35,0000.29,0000.41,-000.25,0000.18,0000.55,0000.11,18.3,24.9,01.8,01.2,0672.8,30.8
2021-08-27T04:29:00Z,00000200,01000000,0000.58,0000.52,-000.15,0000.20,-000.13,-000.19,0000.27,-000.15,0000.61,18.3,24.8,01.9,01.2,0672.8,30.8
2021-08-27T04:30:00Z,00000200,00000000,0000.23,0000.50,0000.17,0000.44,0000.08,-000.15,-000.28,0000.09,-000.06,18.3,24.8,01.9,01.2,0672.8,30.8
2021-08-27T04:31:00Z,00000200,01000000,0000.46,0000.53,0000.31,-000.07,0000.21,-000.23,0000.74,0000.44,0000.08,18.3,24.8,01.9,01.2,0672.8,30.8
2021-08-27T04:32:00Z,00000200,01000000,0000.57,0000.98,0000.20,-000.16,-000.19,-000.02,-000.58,-000.17,0000.04,18.4,24.9,01.9,01.3,0672.9,30.8
2021-08-27T04:33:00Z,00000200,01000000,0000.77,0000.74,-000.00,0000.25,0000.15,-000.08,0000.55,-000.06,-000.24,18.5,24.9,01.9,01.3,0672.8,30.9
2021-08-27T04:34:00Z,00000200,00000000,0001.25,0000.55,0000.07,0000.74,0000.13,-000.04,0000.35,0000.75,0000.43,18.6,25.0,01.9,01.3,0672.8,30.9
2021-08-27T04:35:00Z,00000200,00000000,0000.70,0000.75,0000.25,0000.46,0000.33,0000.29,-000.02,0000.03,0000.46,18.7,25.0,01.9,01.3,0672.8,30.9
2021-08-27T04:36:00Z,00000200,00000000,0000.54,0000.66,0000.11,0000.32,0000.07,-000.08,0000.43,0000.40,-000.10,18.7,25.1,02.0,01.4,0672.8,30.9
2021-08-27T04:37:00Z,00000200,00000000,0000.06,0000.62,0000.34,0000.72,0000.29,-000.07,0000.28,0000.22,0000.37,18.7,25.0,02.0,01.4,0672.8,30.9
2021-08-27T04:38:00Z,00000200,00000000,0001.77,0000.76,0000.41,0000.75,0000.20,0000.25,0000.44,0000.11,0000.02,18.7,25.0,02.1,01.4,0672.8,30.9
2021-08-27T04:39:00Z,00000200,01000000,0001.30,0000.56,0000.54,0000.10,0000.15,0000.15,0000.65,0000.95,0000.60,18.6,25.0,02.1,01.4,0672.8,30.8
2021-08-27T04:40:00Z,00000200,00000000,0000.56,0000.47,0000.63,0000.39,0000.22,-000.01,0000.21,0000.29,0000.34,18.6,25.0,02.2,01.5,0672.7,30.8
2021-08-27T04:41:00Z,00000200,00000000,0000.84,0000.86,0000.44,0000.60,-000.19,0000.06,0000.28,0000.05,0000.32,18.5,25.0,02.2,01.5,0672.7,30.8
2021-08-27T04:42:00Z,00000200,00000000,0000.95,0000.96,0000.57,-000.18,-000.05,-000.07,0000.73,0000.79,0000.41,18.5,24.9,02.2,01.5,0672.7,30.8
2021-08-27T04:43:00Z,00000200,00000000,0000.73,0000.96,0000.37,-000.15,0000.01,-000.14,-000.12,-000.16,0000.04,18.5,24.9,02.3,01.5,0672.7,30.8
2021-08-27T04:44:00Z,00000200,00000000,0001.65,0000.53,0000.41,0000.78,-000.15,-000.07,0000.82,0000.64,0000.09,18.4,24.9,02.4,01.6,0672.7,30.8
2021-08-27T04:45:00Z,00000200,00000000,0000.98,0000.80,0000.63,-000.02,0000.20,-000.14,0000.02,0000.15,0000.44,18.4,24.9,02.4,01.6,0672.7,30.8
2021-08-27T04:46:00Z,00000200,00000000,0000.73,0000.68,0000.28,0000.36,-000.07,-000.25,0000.36,0000.29,0000.07,18.4,24.9,02.5,01.7,0672.6,30.8
2021-08-27T04:47:00Z,00000200,00000000,0000.53,0000.61,0000.29,0000.54,-000.11,-000.41,0000.27,0000.05,0000.31,18.5,24.9,02.4,01.7,0672.5,30.8
2021-08-27T04:48:00Z,00000200,00000000,0000.72,0000.88,0000.30,0000.31,-000.20,0000.03,0000.52,0000.42,0000.16,18.6,25.0,02.6,01.8,0672.5,30.9
2021-08-27T04:49:00Z,00000200,00000000,0001.07,0000.86,0000.42,0000.36,0000.13,-000.28,0000.53,0000.50,0000.39,18.7,25.0,02.6,01.8,0672.5,30.9
2021-08-27T04:50:00Z,00000200,00000000,0001.80,0000.57,0000.64,0000.73,0000.01,-000.26,0000.03,0000.43,0000.33,18.7,25.0,02.7,01.8,0672.4,30.9
2021-08-27T04:51:00Z,00000200,00000000,0000.21,0000.73,0000.28,0000.13,0000.37,0000.09,0000.50,0000.36,0000.12,18.8,25.1,02.8,01.9,0672.4,30.9
2021-08-27T04:52:00Z,00000200,00000000,0001.03,0001.00,0000.63,0000.31,0000.21,0000.19,0000.43,0000.47,0000.93,18.8,25.0,02.8,01.9,0672.4,30.9
2021-08-27T04:53:00Z,00000200,00000000,0001.03,0000.85,0000.46,0000.24,0000.51,-000.39,0000.42,0000.57,0000.08,18.7,25.0,02.9,02.0,0672.3,30.8
2021-08-27T04:54:00Z,00000200,00000000,0000.72,0001.03,0000.70,0000.31,0000.04,-000.11,0000.82,0000.27,0000.48,18.6,25.0,03.0,02.1,0672.3,30.8
2021-08-27T04:55:00Z,00000200,00000000,0001.42,0000.79,0000.42,-000.15,-000.07,-000.10,0000.31,0000.64,-000.01,18.6,25.0,03.0,02.1,0672.3,30.8
2021-08-27T04:56:00Z,00000200,00000000,-000.04,0000.70,0000.46,0000.34,0000.37,-000.37,-000.12,-000.19,0000.16,18.6,25.0,03.1,02.1,0672.3,30.8
2021-08-27T04:57:00Z,00000200,40000000,,,,,,,-000.77,-000.77,-000.77,18.6,25.0,02.8,01.9,0672.2,30.8
2021-08-27T04:58:00Z,00000200,60000000,,,,,,,0000.84,0000.71,0000.71,18.2,25.0,02.7,01.8,0671.3,30.8
2021-08-27T04:59:00Z,00000200,20000000,,,,,,,0000.50,0000.71,0000.20,18.2,25.1,02.9,01.9,0671.3,30.8
